Regional Weather Roundup
Issued by NWS Jackson, KY

Home | Current Version | Previous Version | Text Only | Print | Product List | Glossary On
Versions: 1 2 3 4 5 6 7 8 9 10 11 12 13 14 15 16 17 18 19 20 21 22 23 24 25 26 27 28 29 30 31 32 33 34 35 36 37 38 39 40 41 42 43 44 45 46 47 48 49 50
000
ASUS43 KJKL 251810
RWRJKL

EAST KENTUCKY HOURLY WEATHER ROUNDUP
NATIONAL WEATHER SERVICE JACKSON KY
200 PM EDT MON MAY 25 2015

NOTE: "FAIR" INDICATES FEW OR NO CLOUDS BELOW 12,000 FEET WITH
NO SIGNIFICANT WEATHER AND/OR OBSTRUCTIONS TO VISIBILITY.

* THESE REPORTS ARE NOT UNDER NWS QUALITY CONTROL AND MAY NOT
  REPORT WEATHER SUCH AS PRECIPITATION AND FOG.

KYZ079-080-083-085-087-088-110-112-115-119-120-251900
...EASTERN KENTUCKY...

CITY           SKY/WX    TMP DP  RH WIND       PRES   REMARKS
JACKSON        MOSUNNY   83  61  47 VRB6      30.22F
6HR MIN TEMP:  65; 6HR MAX TEMP:  83;

LONDON         CLOUDY    79  57  46 S9        30.22F
6HR MIN TEMP:  68; 6HR MAX TEMP:  81;

SOMERSET*      CLOUDY    75  59  57 SW5       30.22F
MONTICELLO*    CLOUDY    79  64  59 S13       30.23F
6HR MIN TEMP:  72; 6HR MAX TEMP:  80;

MIDDLESBORO*   CLOUDY    80  60  51 CALM      30.24F
6HR MIN TEMP:  62; 6HR MAX TEMP:  80;

HARLAN APT*    CLEAR     82  54  36 CALM      30.25S
HAZARD APT*    PTCLDY    84  57  39 W12G18    30.22F
PIKEVILLE APT* SUNNY     82  59  44 CALM      30.22F
BIG SANDY*     PTCLDY    85  60  43 W7        30.21F
6HR MIN TEMP:  68; 6HR MAX TEMP:  85;

MOREHEAD APT*  PTCLDY    79  61  53 SW15G22   30.22S
$$

KYZ035-036-041-042-044-050-067-078-099-251900
...CENTRAL KENTUCKY...

CITY           SKY/WX    TMP DP  RH WIND       PRES   REMARKS
MT STERLING*   CLOUDY    81  63  54 W17G24    30.21F
FLEMING/MASON* MOSUNNY   82  63  51 SW21      30.19S
DANVILLE*      CLOUDY    75  61  60 SW10      30.22S
RICHMOND*      CLOUDY    79  61  53 SW13      30.20S
LEXINGTON      CLOUDY    78  60  53 SW16G26   30.20R
6HR MIN TEMP:  70; 6HR MAX TEMP:  80;

FRANKFORT      CLOUDY    76  61  59 SW15G28   30.18R
6HR MIN TEMP:  68; 6HR MAX TEMP:  80; 6HR PCP: TRACE;

$$

KYZ091>093-OHZ055-061-077-WVZ005-015-034-035-042-251900
...SOUTHERN OHIO/WEST VIRGINIA...

CITY           SKY/WX    TMP DP  RH WIND       PRES   REMARKS
COVINGTON      LGT RAIN  70  64  81 SW13G23   30.16R
COLUMBUS       PTSUNNY   81  59  47 SW22G30   30.12S
DAYTON         CLOUDY    73  64  73 SW20G31   30.14R
WILMINGTON     CLOUDY    78  59  51 SW21G31   30.14R
HUNTINGTON     PTSUNNY   84  60  44 W10       30.18F
CHARLESTON     MOSUNNY   85  57  38 SW8       30.19F
PINEVILLE*     SUNNY     84  59  42 MISG      30.30S
BECKLEY        SUNNY     80  49  33 VRB3      30.28F
BLUEFIELD      SUNNY     81  50  33 VRB6      30.31F
$$

VAZ002-007-008-TNZ017-027-036-066-071-251900
...SOUTHWEST VIRGINIA/EAST TENNESSEE...

CITY           SKY/WX    TMP DP  RH WIND       PRES   REMARKS
WISE*          SUNNY     79  50  36 S7        30.31S
JONESVILLE*    CLEAR     81  55  41 S7        30.27F
ABINGDON*      SUNNY     81  49  33 SW5       30.29F
BRISTOL        MOSUNNY   84  54  35 VRB3      30.25F
KNOXVILLE      PTSUNNY   82  57  42 S10       30.21F
OAK RIDGE      MOSUNNY   85  59  41 VRB7G17   30.23F
CROSSVILLE     PTSUNNY   75  60  59 S9G21     30.26F
NASHVILLE      CLOUDY    69  67  93 E6        30.15F
$$

...KEY TO REMARKS...
VSB - VISIBILITY IN MILES
WCI - WIND CHILL INDEX
HX  - HEAT INDEX

$$


USA.gov is the U.S. government's official web portal to all federal, state and local government web resources and services.